Terminal Aerodrome Forecast
Issued by NWS

Current Version | Previous Version | Graphics & Text | Print | Product List | Glossary On
Versions: 1 2 3 4 5 6 7 8 9 10 11 12 13 14 15
000
FTUS41 KPBZ 290531
TAFMGW
TAF
KMGW 290531Z 2906/3006 00000KT P6SM BKN060
     FM291500 21004KT P6SM BKN150
     FM291800 15004KT P6SM VCTS BKN060CB
     FM300200 00000KT P6SM BKN050=

USA.gov is the U.S. government's official web portal to all federal, state and local government web resources and services.